#timestamp,LO_Frequency,Hit,StdDev 
1594483215.4,286046999.4,N
1594483235.2,286046997.4,N
1594483255.0,286046997.3,N
1594483255.9,286046997.3,N
1594483275.8,286046995.0,Y
1594483295.6,286046999.0,P
1594483315.5,286046999.2,N
1594483335.3,286046997.0,P
1594483355.1,286046997.8,N
1594483375.9,286046997.7,N
1594483395.7,286046997.9,N
1594483415.5,286046997.1,Y
1594483435.4,286046999.6,P
1594483455.2,286046999.2,N
1594483475.1,286046999.4,N
1594483476.0,286046999.4,N
1594483495.8,286046999.4,N
1594483515.6,286046999.4,N
1594483535.5,286046996.6,Y
1594483555.3,286046999.4,P
1594483575.2,286046999.1,P
1594483595.9,286046996.9,P
1594483615.7,286046997.1,N
1594483635.6,286046996.6,Y
1594483655.4,286046998.9,P
1594483675.2,286046999.2,N
1594483695.1,286046999.5,N
1594483696.0,286046999.5,N
1594483715.8,286046996.7,Y
1594483735.7,286046997.1,P
1594483755.5,286046996.8,P
1594483775.3,286046997.3,N
1594483795.2,286046997.4,N
1594483815.0,286046997.1,Y
1594483815.9,286046997.1,P
1594483835.8,286047000.5,N
1594483855.6,286046998.4,N
1594483875.4,286046998.2,N
1594483895.3,286046999.0,N
1594483915.1,286046999.2,N
1594483935.9,286046999.5,N
1594483955.7,286046997.8,N
1594483975.5,286046997.6,N
1594483995.4,286046995.1,Y
1594484015.2,286046999.1,P
1594484035.0,286046997.1,P
1594484036.0,286046997.1,P
1594484055.8,286046997.4,Y
1594484075.6,286046999.1,P
1594484095.5,286046998.2,P
1594484115.3,286046996.5,P
1594484135.1,286046999.1,N
1594484155.9,286046999.6,N
1594484175.7,286046996.7,Y
1594484195.6,286046998.6,P
1594484215.4,286046998.4,P
1594484235.2,286046998.8,P
1594484255.1,286046999.6,N
1594484256.0,286046999.6,N
1594484275.8,286046996.5,Y
1594484295.7,286046999.3,P
1594484315.5,286046996.5,P
1594484335.3,286046997.0,N
1594484355.2,286046999.0,N
1594484375.0,286046999.6,N
1594484375.9,286046999.6,N
1594484395.7,286046998.8,N
1594484415.6,286046998.8,N
1594484435.4,286046999.6,N
1594484455.3,286046997.0,N
1594484475.1,286046999.5,N
1594484476.0,286046999.5,N
1594484495.8,286046996.5,Y
1594484515.7,286046999.4,P
1594484535.5,286046999.0,N
1594484555.3,286046996.6,P
1594484575.2,286046997.0,N
1594484595.0,286046999.2,N
1594484595.9,286046999.2,N
1594484615.8,286046998.4,N
1594484635.6,286046999.0,N
1594484655.4,286046999.6,N
1594484675.3,286046996.9,Y
1594484695.1,286046998.8,P
1594484715.9,286046996.8,P
1594484735.7,286046997.1,P
1594484755.5,286046996.9,Y
1594484775.4,286047000.6,P
1594484795.2,286046998.6,N
1594484815.0,286046998.3,N
1594484815.9,286046998.3,N
1594484835.8,286047000.8,N
1594484855.6,286047000.8,N
1594484875.5,286047000.7,N
1594484895.3,286047001.0,N
1594484915.1,286047000.9,N
1594484935.9,286046998.1,N
1594484955.7,286047001.2,N
1594484975.5,286047000.9,N
1594484995.4,286046999.8,N
1594485015.2,286047000.5,N
1594485035.1,286046998.5,N
1594485036.0,286046998.5,N
1594485055.8,286047000.6,N
1594485075.6,286046998.6,N
1594485095.5,286047000.7,N
1594485115.3,286047000.8,N
1594485135.1,286047002.3,N
1594485155.9,286047000.9,N
1594485175.7,286047000.9,N
1594485195.6,286047000.8,N
1594485215.4,286047000.1,N
1594485235.2,286047002.7,N
1594485255.1,286047000.2,N
1594485256.0,286047000.2,N
1594485275.8,286046999.9,N
1594485295.6,286047000.1,N
1594485315.5,286046999.8,N
1594485335.3,286047001.6,N
1594485355.2,286047001.5,N
1594485375.9,286047002.6,N
1594485395.7,286047002.6,N
1594485415.6,286047002.7,N
1594485435.4,286047002.2,N
1594485455.2,286047002.0,N
1594485475.1,286047001.3,N
1594485476.0,286047001.3,N
1594485495.8,286047001.8,N
1594485515.7,286047001.3,N
1594485535.5,286047004.3,Y
1594485555.3,286047011.9,P
1594485575.2,286047003.9,N
1594485595.0,286047003.6,N
1594485595.9,286047003.6,N
1594485615.8,286047003.2,N
1594485635.6,286047003.9,N
1594485655.4,286047003.7,N
1594485675.3,286047001.4,N
1594485695.1,286047004.4,N
1594485715.8,286047003.9,N
1594485735.7,286047003.8,N
1594485755.5,286047005.9,N
1594485775.4,286047003.3,N
1594485795.2,286047005.4,N
1594485815.0,286047005.7,N
1594485815.9,286047005.7,N
1594485835.8,286047003.4,N
1594485855.6,286047004.6,N
1594485875.4,286047005.1,N
1594485895.3,286047005.7,N
1594485915.1,286047005.0,N
1594485935.9,286047005.0,N
1594485955.7,286047006.5,Y
1594485975.5,286047001.8,P
1594485995.4,286047003.9,N
1594486015.2,286047001.3,N
1594486035.1,286047001.6,N
1594486036.0,286047001.6,N
1594486055.8,286047001.7,N
1594486075.6,286047004.2,Y
1594486095.5,286047000.1,P
1594486115.3,286047000.3,N
1594486135.1,286047002.6,N
1594486155.9,286047001.6,N
1594486175.7,286047001.9,N
1594486195.6,286047001.5,N
1594486215.4,286047002.0,N
1594486235.2,286047002.0,N
1594486255.1,286047002.8,Y
1594486256.0,286047002.8,P
1594486275.8,286047000.4,N
1594486295.6,286047000.8,N
1594486315.5,286047000.7,N
1594486335.3,286047000.7,N
1594486355.2,286047000.2,N
1594486375.9,286047000.9,N
1594486395.7,286047000.7,N
1594486415.6,286047000.1,N
1594486435.4,286046999.9,N
1594486455.2,286047000.7,N
1594486475.1,286047001.0,N
1594486476.0,286047001.0,N
1594486495.8,286047002.5,Y
1594486515.7,286047002.7,P
1594486535.5,286047002.6,N
1594486555.3,286047002.3,N
1594486575.2,286047002.5,Y
1594486595.0,286047001.2,P
1594486595.9,286047001.2,N
1594486615.8,286047000.8,N
1594486635.6,286047000.3,N
1594486655.4,286047000.3,N
1594486675.3,286047000.4,N
1594486695.1,286047000.9,N
1594486715.9,286047000.3,N
1594486735.7,286047001.0,N
1594486755.5,286047000.9,N
1594486775.4,286047000.7,N
1594486795.2,286046998.1,Y
